Location: Jaite
(41.2884°N, 81.5737°W)
Time: 06:05:00
(UTC+00:00)

RESURS DK-1 - Pass Details

Date: 15 November 2025
Orbit: 524 x 535 km, 69.9° (Epoch: 04 December)

Event Time Altitude Azimuth Distance (km) Brightness Sun altitude
Rises 23:59:02 0° 335° (NNW) 2,696 6.1 -21.0°
Reaches altitude 10° 00:01:14 10° 336° (NNW) 1,800 5.1 -21.4°
Maximum altitude 00:05:15 83° 63° (ENE) 545 2.1 -22.1°
Enters shadow 00:05:16 83° 70° (ENE) 545 2.1 -22.1°
